Regional Weather Roundup
Issued by NWS Huntsville, AL

Home | Current Version | Previous Version | Text Only | Print | Product List | Glossary On
Versions: 1 2 3 4 5 6 7 8 9 10 11 12 13 14 15 16 17 18 19 20 21 22 23 24 25 26 27 28 29 30 31 32 33 34 35 36 37 38 39 40 41 42 43 44 45 46 47 48 49 50
000
ASUS44 KHUN 120710
RWRHUN

WEATHER ROUNDUP FOR THE TENNESSEE VALLEY
NATIONAL WEATHER SERVICE HUNTSVILLE AL
100 AM CST FRI FEB 12 2016

ALZ001>004-120800-
NORTHWEST ALABAMA

CITY           SKY/WX    TMP DP  RH WIND       PRES   REMARKS
COURTLAND HCN    N/A     37 N/A N/A CALM        N/A
RUSSELLVILLE     N/A     36 N/A N/A MISG        N/A
SHOALS AIRPORT MOCLDY    39  24  55 NE7       30.20S WCI  34
SHOALS TVA RES   N/A     37 N/A N/A MISG        N/A
$$

ALZ005>007-016-120800-
NORTH CENTRAL ALABAMA

CITY           SKY/WX    TMP DP  RH WIND       PRES   REMARKS
CULLMAN AG STN   N/A     34 N/A N/A CALM        N/A
DECATUR AP     CLOUDY    37  25  61 NE6       30.19S WCI  32
HUNTSVILLE AP  MOCLDY    38  25  59 N6        30.18R WCI  33
HUN NWS/UAH      N/A     38  23  55 N1          N/A
MERIDIANVILLE  CLOUDY    34  23  64 N7        30.18R WCI  28
REDSTONE ARSN  CLOUDY    37  26  63 N6        30.18R WCI  33
VINEMONT AP    FAIR      34  25  71 N3        30.17R
$$

ALZ008>010-120800-
NORTHEAST ALABAMA

CITY           SKY/WX    TMP DP  RH WIND       PRES   REMARKS
ALBERTVILLE    PTCLDY    34  30  86 CALM      30.15R
FORT PAYNE     CLOUDY    32  25  74 CALM      30.16R
SCOTTSBORO AP  CLOUDY    36  25  64 NE6       30.18S WCI  31
SCOTTSBORO HCN   N/A     36 N/A N/A MISG        N/A
VALLEY HEAD      N/A     32 N/A N/A MISG        N/A
$$

TNZ076-096-097-120800-
SOUTHEASTERN MIDDLE TENNESSEE

CITY           SKY/WX    TMP DP  RH WIND       PRES   REMARKS
TULLAHOMA      CLEAR     30  21  69 E3        30.16F
WINCHESTER     MOCLDY    30  27  86 CALM      30.18S
$$

...SURROUNDING SITES...

CITY           SKY/WX    TMP DP  RH WIND       PRES   REMARKS
ATLANTA        MOCLDY    40  24  53 NE5       30.17F
ANNISTON       MOCLDY    40  24  53 NE6       30.17F
BIRMINGHAM     CLOUDY    44  25  47 VRB3      30.16F
CHATTANOOGA    MOCLDY    35  22  58 N9        30.19F WCI  28
DALTON         CLOUDY    32  28  86 CALM      30.16F
GADSDEN        CLOUDY    34  26  72 NE5       30.17F WCI  30
GOLDEN TRNGL   CLOUDY    43  27  52 CALM      30.14F
HALEYVILLE     FAIR      34  24  67 N5        30.18R WCI  30
JACKSON TN     MOCLDY    35  23  61 E6        30.18R WCI  30
MEMPHIS        CLOUDY    42  24  49 E5        30.17S
NASHVILLE      CLOUDY    34  20  56 CALM      30.20F
OXFORD MS      FAIR      37  25  60 E6        30.18F WCI  33
ROME           CLOUDY    33  26  75 CALM      30.17F
SAVANNAH       CLOUDY    37  25  60 SE6       30.15F WCI  33
TUPELO         PTCLDY    35  26  69 N9        30.19R WCI  28
TUSCALOOSA     CLOUDY    40  32  73 N3        30.16S
$$

...GULF COAST WEATHER...

CITY           SKY/WX    TMP DP  RH WIND       PRES   REMARKS
GULFPORT       CLEAR     58  56  93 VRB6      30.17F
PASCAGOULA     CLEAR     58  56  93 SW5       30.18F
MOBILE         CLEAR     57  56  96 SW12      30.17F
GULF SHORES    SUNNY     60  58  94 W13G18    30.18S
DESTIN         CLEAR     63  59  87 W12G23    30.17S
PANAMA CITY    PTCLDY    63  58  83 W13       30.19S
APPALACHICOLA  PTCLDY    60  58  92 W10       30.20F
$$




USA.gov is the U.S. government's official web portal to all federal, state and local government web resources and services.